Probability
0 1 2 2 1 0 1 2 2 2 3 3 3 3 2 1 0 0 0 0 0 1 3 3 2 1 0 0 0 0 0 0 0 0 1 2 3 3 4 5 4 1 0
0 0 1 1 0 0 1 2 2 2 3 3 3 3 1 0 0 0 0 1 1 2 3 2 1 0 0 0 0 0 0 0 0 0 1 2 2 2 4 5 4 1 0
0 0 0 0 0 0 1 2 3 3 3 3 3 2 1 0 0 0 0 1 2 2 2 1 0 1 1 0 0 0 0 0 0 1 2 2 1 1 3 4 3 1 1
0 0 0 0 0 0 1 2 3 3 3 3 2 1 1 1 1 1 1 2 2 2 1 0 1 2 1 0 0 0 0 0 1 1 1 2 1 0 1 1 1 1 2
0 1 1 0 0 0 1 1 1 1 2 1 1 1 1 2 2 2 2 3 3 2 0 1 2 2 1 0 0 0 0 0 0 0 1 1 1 0 0 0 0 1 1
1 2 2 1 0 0 1 1 0 0 0 0 2 3 3 3 3 3 3 3 3 1 0 1 2 2 1 0 0 0 0 0 0 0 0 0 0 0 0 0 0 0 0
1 2 2 1 0 1 1 0 0 0 0 1 3 4 4 3 3 3 3 3 3 1 1 2 3 2 0 0 0 0 0 0 0 0 0 0 0 1 1 1 0 0 0
0 1 1 1 0 1 1 0 0 1 1 3 4 4 3 3 4 3 3 3 3 2 1 2 3 2 1 1 1 1 1 1 1 1 2 1 2 3 3 2 1 1 0
0 0 0 0 0 0 1 1 1 1 3 4 4 4 3 3 4 3 1 1 2 2 2 2 3 3 3 2 2 2 1 1 2 3 3 3 4 5 4 3 3 2 1
0 0 0 0 0 0 1 2 2 2 4 4 4 3 3 3 3 3 1 0 1 2 2 2 3 3 3 3 3 3 1 1 3 3 3 4 5 5 4 3 3 3 3
0 1 1 0 0 0 1 1 2 3 4 3 3 3 3 3 3 2 1 0 0 1 2 2 3 3 3 3 3 3 3 3 3 3 3 4 6 6 4 3 3 3 3
1 2 3 2 1 1 1 1 1 1 2 2 2 2 2 2 2 1 1 0 0 0 1 1 3 3 3 3 3 3 3 3 3 3 4 5 6 6 4 3 3 3 4
2 3 4 5 4 4 2 1 0 0 0 1 1 1 1 1 1 0 0 0 0 0 0 1 2 3 3 3 3 3 3 3 3 3 4 6 6 6 4 3 3 4 5
3 3 5 6 6 5 3 1 0 0 0 0 0 0 0 0 0 0 1 1 0 0 0 1 2 3 3 3 3 3 3 3 3 4 5 5 6 5 4 3 3 4 6
3 4 5 5 4 4 3 1 1 1 0 0 0 0 1 0 0 0 1 1 0 0 0 1 1 2 3 3 3 3 3 3 3 4 4 4 4 4 3 3 2 4 6
4 5 6 4 2 2 3 3 2 1 0 0 0 1 1 0 0 0 1 1 0 0 1 1 1 1 2 3 3 3 3 3 4 4 4 4 3 3 2 2 2 3 3
5 6 6 3 1 1 3 4 2 1 0 0 0 1 1 0 0 0 0 0 0 0 1 2 2 1 1 1 2 3 3 3 3 4 5 5 4 2 1 1 1 1 1
9 8 7 3 1 2 4 5 3 1 0 0 0 1 1 0 0 0 0 0 0 0 0 1 2 1 0 0 1 2 3 3 3 3 4 5 4 3 1 1 1 1 0
11 9 7 5 3 2 4 5 3 2 1 1 1 1 1 1 1 1 1 0 0 0 0 0 1 1 1 0 0 1 1 2 3 3 3 4 4 4 3 2 2 3 2
11 9 8 6 4 3 3 3 3 3 3 2 3 4 4 4 3 3 2 1 1 2 1 0 1 2 1 1 0 0 0 1 2 3 3 3 4 4 4 4 5 5 5
9 9 9 7 5 4 3 3 3 3 3 3 3 4 5 5 5 4 4 3 3 3 2 1 1 2 2 1 0 0 0 0 1 1 2 3 3 4 5 6 7 6 6
8 9 9 8 6 4 3 2 2 2 2 1 1 2 3 4 5 5 5 4 3 3 3 2 1 1 1 1 0 0 0 0 1 1 2 3 4 4 5 6 7 7 6
10 10 10 10 9 6 4 3 2 1 1 0 0 0 1 1 2 5 5 4 3 3 3 2 1 0 0 0 0 0 0 0 1 1 1 2 5 5 4 4 5 6 6
12 12 12 12 11 9 6 4 2 1 0 0 0 0 0 0 1 4 5 4 3 3 3 2 1 1 0 0 1 1 1 1 1 1 1 2 4 5 4 4 4 5 5
13 13 13 13 13 13 10 7 4 2 1 1 1 1 0 0 2 4 6 5 4 4 5 5 5 4 3 3 3 3 3 2 2 1 1 2 2 2 3 3 4 4 4
12 12 12 13 14 15 12 9 6 3 2 2 2 2 1 1 3 5 7 7 5 4 6 7 8 8 7 7 7 5 4 3 3 2 2 3 2 1 1 2 3 3 3
Wind_Speed
6 7 8 8 8 9 10 10 11 11 12 12 11 11 12 12 12 12 12 13 13 13 13 13 14 15 15 16 16 16 16 16 15 14 14 13 13 12 11 10 9 10 12
5 7 8 8 9 9 10 10 11 11 12 12 11 12 12 13 13 13 12 12 12 13 13 14 15 15 15 15 15 15 15 15 14 14 14 13 13 12 10 7 4 9 11
6 7 8 9 9 10 11 11 11 11 11 11 11 12 12 13 13 13 12 12 13 13 13 14 14 15 14 15 14 14 14 14 13 12 10 10 12 11 10 9 8 10 10
7 7 9 10 9 10 11 11 11 11 11 11 11 12 12 13 13 13 13 13 13 13 13 13 13 14 14 14 14 13 13 12 11 9 6 7 9 11 9 9 9 9 9
7 8 10 9 9 10 11 11 11 11 11 11 12 12 13 13 13 13 13 13 13 13 12 12 12 13 13 13 13 12 11 10 9 6 6 6 7 11 9 9 8 8 8
8 8 11 8 9 10 10 11 11 11 11 11 11 12 12 12 12 13 13 13 12 12 12 11 11 12 12 12 11 11 10 8 7 6 5 5 7 10 9 8 8 7 7
8 8 10 9 9 10 10 10 11 11 11 11 11 11 11 11 11 12 12 12 12 12 11 11 11 11 11 11 10 9 7 5 3 5 5 5 7 9 8 7 7 7 7
7 7 9 9 8 9 10 10 10 10 10 11 11 10 11 11 11 11 11 11 11 11 11 11 10 10 10 9 9 8 5 2 4 4 4 5 8 8 7 7 7 7 6
6 7 6 7 8 9 9 10 10 10 10 10 10 11 11 11 10 10 10 10 11 10 10 10 10 9 8 8 8 6 4 1 1 3 4 4 8 7 6 6 6 6 6
6 6 6 6 6 6 9 10 9 9 10 10 10 10 10 10 10 9 9 10 9 9 9 9 9 8 7 7 6 5 4 5 3 3 3 6 8 6 6 6 7 6 6
6 5 5 6 5 6 7 9 8 8 8 7 8 8 5 5 7 6 11 10 9 8 8 8 7 7 6 7 6 5 5 3 2 2 3 8 7 5 5 6 6 7 6
6 6 5 5 5 6 5 5 4 5 6 5 5 5 4 5 4 6 10 8 8 7 7 7 6 5 5 4 7 7 3 2 2 2 4 8 5 4 5 5 5 6 7
6 6 6 5 4 4 4 4 3 3 3 5 5 4 4 3 3 3 3 5 5 5 4 6 5 2 1 2 1 2 1 0 1 1 5 7 5 4 4 4 4 5 6
5 5 5 5 4 3 3 3 3 3 3 3 4 3 3 3 3 3 2 3 2 2 2 1 1 3 2 1 1 1 1 0 0 1 4 7 4 3 3 4 4 5 5
6 5 6 4 4 3 3 1 3 3 3 4 3 4 3 3 3 3 3 2 2 2 2 1 2 2 2 1 1 1 0 0 0 1 3 6 4 3 3 3 4 5 5
6 6 6 5 4 3 2 2 2 2 2 2 3 4 3 3 3 2 2 2 2 2 2 1 2 1 1 1 1 1 1 0 1 0 0 4 6 4 3 3 4 4 5
6 6 6 5 4 3 2 2 2 2 2 2 3 3 2 3 3 1 2 2 2 2 2 1 1 1 1 1 1 1 0 1 0 0 1 1 3 6 5 3 3 4 4
6 6 5 4 5 4 2 1 1 1 2 2 2 3 2 2 2 1 2 2 2 1 1 1 1 1 2 1 1 0 0 1 1 1 1 1 1 1 5 5 3 3 4
6 6 6 4 4 4 3 2 1 1 1 1 1 1 2 1 1 0 1 2 0 0 1 1 2 1 1 1 0 0 0 0 0 1 0 1 1 1 2 5 6 5 4
7 6 6 5 4 4 3 2 2 2 2 1 1 1 1 1 0 1 1 1 1 0 1 1 1 1 1 1 1 1 0 0 1 0 1 1 1 2 2 1 3 5 7
7 7 6 6 5 4 3 3 3 2 2 1 1 2 1 0 0 1 1 1 1 0 0 0 1 0 0 1 1 1 1 2 1 1 1 2 1 1 1 1 2 1 3
8 7 7 7 6 6 3 2 1 1 1 1 1 1 1 1 2 2 1 2 1 1 1 1 1 2 1 1 2 2 1 3 2 1 1 1 2 1 1 2 1 2 3
9 8 7 7 6 6 5 4 3 2 2 2 2 2 1 2 2 2 2 2 1 2 1 2 2 2 2 1 2 3 3 2 1 2 1 1 1 1 2 1 2 2 3
9 8 8 7 7 6 6 5 5 3 3 2 2 1 1 2 2 2 2 2 2 2 1 3 1 2 3 2 1 1 3 3 3 1 1 0 1 1 2 2 2 2 2
10 9 8 8 7 7 6 6 5 5 3 2 2 2 2 2 2 2 2 2 2 2 2 3 2 3 3 3 2 2 2 2 4 4 3 2 1 1 1 2 2 2 2
9 9 9 8 8 7 7 7 6 5 4 3 3 2 2 2 2 2 3 2 3 2 2 3 3 4 4 3 3 3 3 2 3 3 3 3 2 1 1 2 2 2 2
Wind_Direction
39 48 51 62 70 77 80 81 80 83 83 83 84 87 92 96 97 100 101 104 109 111 113 115 118 121 124 125 125 125 125 123 122 123 123 126 127 127 128 134 148 128 122
51 63 71 66 69 75 81 83 81 84 85 83 84 88 92 94 96 97 97 101 106 111 114 114 116 120 123 123 124 125 126 126 125 127 130 130 128 128 132 134 119 112 131
67 73 83 71 71 76 83 84 81 83 86 84 86 92 93 94 96 97 97 101 104 110 112 113 115 117 119 121 122 123 124 125 127 134 151 140 128 129 130 124 117 122 131
68 73 72 74 74 80 84 84 83 85 87 86 88 93 93 92 94 96 97 100 100 103 107 113 117 115 115 116 118 120 121 123 131 152 152 122 123 123 128 128 128 129 131
75 75 80 74 76 80 84 83 83 89 91 91 91 91 91 90 92 94 96 98 100 100 104 113 116 116 115 115 118 121 123 129 146 166 121 118 117 123 132 134 137 137 137
82 78 82 75 78 80 86 87 84 85 87 94 96 94 94 93 92 91 93 95 98 100 101 108 112 113 113 115 118 122 129 146 172 136 124 124 118 129 138 142 144 143 144
81 81 87 84 80 80 84 88 84 83 84 89 95 96 96 95 95 94 94 94 96 97 98 105 110 111 112 115 119 124 135 159 155 121 126 118 114 132 143 148 150 152 154
85 84 96 100 89 84 83 83 84 87 87 90 93 93 94 96 97 97 96 96 96 97 101 102 105 111 115 119 120 122 129 196 140 129 128 123 120 137 151 159 162 161 167
86 84 89 102 110 104 92 84 82 84 87 89 90 90 90 93 97 97 98 98 99 100 103 106 107 109 113 116 119 123 134 213 190 128 133 119 127 148 162 168 173 176 180
95 93 95 88 98 109 108 95 87 84 83 86 88 87 92 101 106 106 108 101 102 102 106 111 110 108 110 116 124 137 168 214 173 145 130 116 133 155 171 177 181 185 191
103 97 98 96 102 99 94 99 104 100 89 97 99 99 108 98 98 113 88 94 99 102 107 113 114 118 130 139 148 170 208 206 146 118 106 109 138 164 177 182 187 195 202
109 105 98 89 92 95 90 93 89 88 88 83 82 87 86 79 75 80 99 100 101 106 115 116 127 159 197 154 157 189 198 178 154 136 113 123 149 176 192 193 198 203 208
122 116 109 101 76 81 91 88 76 76 83 91 86 86 84 85 92 93 105 120 123 136 130 133 167 158 125 92 129 166 145 132 120 120 112 131 156 186 200 197 204 208 212
122 113 106 107 105 84 73 83 87 85 86 83 86 73 81 75 67 71 68 73 87 97 90 103 108 96 91 107 122 123 133 176 121 103 113 130 155 186 204 205 214 218 221
133 127 117 112 103 104 95 80 80 73 74 86 80 73 62 74 67 68 60 54 62 78 106 85 79 88 99 121 146 122 166 124 89 175 131 140 161 186 208 225 236 235 228
145 135 128 130 122 118 117 97 85 86 86 80 80 75 62 67 64 63 78 55 54 56 55 56 83 105 103 92 111 89 303 353 89 246 180 149 164 181 208 232 244 237 232
146 140 142 141 135 133 124 114 102 100 93 87 84 85 70 70 68 53 69 67 54 60 82 92 72 89 125 131 101 84 169 348 49 193 250 244 175 174 188 215 236 229 224
153 151 155 154 143 144 135 114 96 84 87 88 95 92 72 55 60 24 55 54 48 64 83 92 62 47 55 32 49 17 119 158 205 219 219 225 264 207 177 181 209 213 223
162 161 163 164 160 160 154 160 151 122 102 95 96 84 83 74 56 350 49 49 336 40 60 24 68 20 39 15 358 118 16 80 204 220 232 224 215 254 253 166 192 200 213
170 170 174 174 174 176 172 171 176 168 175 160 136 95 61 99 66 305 152 119 262 164 59 39 40 30 341 327 327 27 326 237 264 190 250 228 226 246 262 271 213 190 193
178 178 185 187 178 187 189 194 182 176 177 166 165 136 180 231 202 255 297 147 253 180 292 275 297 204 254 303 266 225 195 199 228 250 265 294 286 281 274 262 267 274 191
185 188 190 193 189 195 189 201 200 187 191 174 165 145 218 232 247 222 230 251 221 207 214 244 261 294 296 263 300 290 252 183 179 197 248 261 297 285 269 245 270 259 271
190 193 195 196 192 199 192 198 190 186 208 181 187 185 209 238 247 272 245 265 265 252 214 250 254 273 294 283 306 308 310 348 329 165 206 261 286 291 280 282 251 261 263
192 190 193 194 197 198 198 207 210 209 207 198 221 191 215 240 257 245 245 249 267 282 264 252 236 269 271 284 240 261 300 317 296 292 217 218 259 272 306 299 292 262 260
192 190 188 190 194 195 200 201 212 219 211 202 213 195 239 229 237 234 231 233 244 259 275 291 274 268 267 277 285 272 261 244 258 278 293 298 281 289 301 289 287 290 279
191 191 189 186 190 193 198 204 213 221 225 226 230 224 229 214 214 212 229 233 242 259 254 265 270 259 269 282 285 283 276 278 278 281 284 284 297 306 318 315 292 292 289